Regional Weather Roundup
Issued by NWS

Home | Current Version | Previous Version | Graphics & Text | Print | Product List | Glossary On
Versions: 1 2 3 4 5 6 7 8 9 10 11 12 13 14 15 16 17 18 19 20 21 22 23 24 25 26 27 28 29 30 31 32 33 34 35 36 37 38 39 40 41 42 43 44 45 46 47 48 49 50
000
ASUS45 KSLC 281410
RWRUT

UTAH REGIONAL WEATHER ROUNDUP
NATIONAL WEATHER SERVICE SALT LAKE CITY UT
800 AM MDT FRI APR 28 2017

UTZ001>011-023>025-281500-

NORTHERN UTAH

CITY           SKY/WX    TMP DP  RH WIND       PRES   REMARKS
BRIGHAM CITY   CLOUDY    34  25  69 N5        29.89R WCI  30
HILL AFB       MOSUNNY   34  22  61 N7        29.87R WCI  28
LOGAN          CLOUDY    33  29  85 NW6       29.88R WCI  28
OGDEN          PTSUNNY   34  25  69 NW5       29.87R WCI  30
SALT LAKE CITY PTSUNNY   37  32  82 E3        29.89R
TOOELE VALLEY  CLOUDY    36  28  75 NW6       29.90R WCI  31
WENDOVER       SUNNY     38  23  55 NW15G25   29.93R WCI  29
HEBER CITY     MOSUNNY   30  27  86 CALM      29.83R
WEST JORDAN    CLOUDY    36  36 100 CALM      29.89R

$$

UTZ011>015-024>027-281500-

CENTRAL/NORTHEAST UTAH

CITY           SKY/WX    TMP DP  RH WIND       PRES   REMARKS
PROVO AIRPORT  PTSUNNY   36  28  75 N13       29.89R WCI  27
MOAB/CANYONLAN MOSUNNY   40  20  44 W12       29.77R WCI  33
DELTA          PTSUNNY   32  27  80 CALM      29.91R
PRICE          SUNNY     33  17  51 NW8       29.77F WCI  26
RICHFIELD      MOSUNNY   36  27  69 SW2       29.88F
ROOSEVELT      SUNNY     32  19  59 W5        29.79R WCI  27
VERNAL         SUNNY     35  21  56 CALM      29.77R

$$

UTZ013>016-019>022-027-281500-

SOUTHERN UTAH

CITY           SKY/WX    TMP DP  RH WIND       PRES   REMARKS
BRYCE CANYON   CLOUDY    28  19  69 NW6       29.84R WCI  22
CEDAR CITY     SUNNY     32  24  72 N7        29.86R WCI  26
MILFORD        CLOUDY    38  26  62 N10       29.89R WCI  31
ST GEORGE      MOSUNNY   51  24  34 E7        29.88R
HANKSVILLE     MOSUNNY   41  16  36 W10       29.83S
KANAB          SUNNY     43  19  39 N12       29.89R
BLANDING       CLOUDY    37  17  45 CALM      29.84S

$$

REGIONAL REPORTS     COLORADO/ARIZONA

CITY           SKY/WX    TMP DP  RH WIND       PRES   REMARKS
CRAIG, CO      CLOUDY    32  23  69 SW3       29.77R
GRAND JUNCTION SUNNY     37  22  54 NW5       29.77R WCI  33
RIFLE, CO      PTSUNNY   35  28  75 NE6       29.77R WCI  30
MONTROSE, CO   SUNNY     34  17  50 SE6       29.80R WCI  29
CORTEZ, CO     CLOUDY    37  20  50 MISG      29.78S
COLORADO CITY    N/A     43  27  52 NW15      29.88R
PAGE, AZ       SUNNY     48  22  35 NW12G23   29.80R
GRAND CANYON   PTSUNNY   40  18  41 W6        29.82R
KINGMAN, AZ    MOSUNNY   54  15  21 N15       29.83R
FLAGSTAFF, AZ  CLOUDY    42  12  29 NW9G18    29.81R

$$

REGIONAL REPORTS    NEVADA/IDAHO/WYOMING

CITY           SKY/WX    TMP DP  RH WIND       PRES   REMARKS
LAS VEGAS, NV  MOSUNNY   60  13  15 N22       29.86R
ELY, NY        MOSUNNY   30  18  60 NW9       29.93R WCI  22
ELKO, NV       PTSUNNY   35  22  58 W7        29.99R WCI  29
POCATELLO, ID  FLURRIES  32  31  96 W13       29.94R WCI  22
BURLEY, ID     CLOUDY    32  28  85 W14G22    29.94R WCI  22
EVANSTON, WY   LGT SNOW  24  19  81 SW10      29.80R WCI  14
ROCK SPRINGS,  LGT SNOW  26  22  84 SW17      29.74R VSB 3/4 WCI  13

$$



USA.gov is the U.S. government's official web portal to all federal, state and local government web resources and services.